Regional Weather Roundup
Issued by NWS

Home | Current Version | Previous Version | Text Only | Print | Product List | Glossary Off
Versions: 1 2 3 4 5 6 7 8 9 10 11 12 13 14 15 16 17 18 19 20 21 22 23 24 25 26 27 28 29 30 31 32 33 34 35 36 37 38 39 40 41 42 43 44 45 46 47 48 49 50

000
ASUS43 KLSX 280407
RWRMO

WEATHER SUMMARY FOR MISSOURI
NATIONAL WEATHER SERVICE SPRINGFIELD MO
1100 PM CDT SAT AUG 27 2016

NOTE: "FAIR" INDICATES FEW OR NO CLOUDS BELOW 12,000 FEET WITH NO
       SIGNIFICANT WEATHER AND/OR OBSTRUCTIONS TO VISIBILITY.
       CURRENT SKY AND/OR WEATHER CONDITIONS ARE NOT AVAILABLE FOR
       CHILLICOTHE AND FARMINGTON.

MOZ001>031-035>038-043-044-053-054-280500-
...NORTHERN AND WESTERN MISSOURI...

CITY           SKY/WX    TMP DP  RH WIND       PRES   REMARKS
KANSAS CTY INT CLEAR     74  69  85 SE3       30.05S
KANSAS C DTWN  CLEAR     74  71  91 N3        30.04R
LEE`S SUMMIT   PTCLDY    77  72  84 E3        30.07R
ST JOSEPH      CLEAR     75  69  81 SE3       30.05R
KIRKSVILLE     PTCLDY    72  69  90 E3        30.09R

$$
MOZ066>068-077>081-088>096-101>105-280500-
...SOUTHWEST MISSOURI...

CITY           SKY/WX    TMP DP  RH WIND       PRES   REMARKS
SPRINGFIELD    CLEAR     76  68  76 S7        30.09S
JOPLIN         CLEAR     77  70  79 SE3       30.06R
BRANSON        CLEAR     73  72  94 CALM      30.12R

$$
MOZ032>034-039>042-045>050-055>058-069>072-280500-
...CENTRAL MISSOURI...

CITY           SKY/WX    TMP DP  RH WIND       PRES   REMARKS
COLUMBIA       CLOUDY    77  74  90 SE7       30.09R
JEFFERSON CITY CLOUDY    77  73  87 E5        30.07R
ROLLA          PTCLDY    73  71  93 E5        30.10R
SEDALIA        CLEAR     75  71  87 S7        30.08R
WHITEMAN AFB   CLEAR     75  75 100 S5        30.05R
OSAGE BEACH    PTCLDY    74  71  91 CALM      30.09R

$$
MOZ051-052-059>065-280500-
...EAST CENTRAL MISSOURI...

CITY           SKY/WX    TMP DP  RH WIND       PRES   REMARKS
ST LOUIS INTL  MOCLDY    79  69  71 SE5       30.10R
SPIRIT OF STL  CLOUDY    76  73  91 E3        30.08S
ST CHARLES     PTCLDY    74  73  97 CALM      30.08R

$$
MOZ072>076-082>087-097>100-106>115-280500-
...SOUTH CENTRAL AND SOUTHEAST MISSOURI...

CITY           SKY/WX    TMP DP  RH WIND       PRES   REMARKS
CAPE GIRARDEAU CLEAR     73  71  93 CALM      30.08R
FARMINGTON     CLEAR     74  71  91 CALM      30.12R
POPLAR BLUFF   CLEAR     74  72  93 N3        30.07S
WEST PLAINS    CLEAR     73  70  90 CALM      30.14R

$$



USA.gov is the U.S. government's official web portal to all federal, state and local government web resources and services.